Date String (YYYY-MM-DD hh:mm:ss) UTC,Instrument flags,absolute air pressure of the measurement (hPa),sample flow rate (lpm),inlet stack bypass flow (lpm),air temperature of the measurement (°C),ambient temperature measured by the external sensor (°C),aerosol sample conditioner tube jacket temperature (°C),OPC LED temperature (°C),internal box temperature (°C),relative humidity of the measurement (%),span deviation,mass concentration of particles derived from Lorenz-Mie calculation of OPC scattering (μg/m³),mass concentration of particles derived from Lorenz-Mie calculation of OPC scattering (μg/m³),mass concentration of particles derived from Lorenz-Mie calculation of OPC scattering (μg/m³)
DateTimeUTC,F1_M11,P_M11,Q1_M11,Q2_M11,T1_M11,T2_M11,T3_M11,T4_M11,T5_M11,U1_M11,ZSPAN_M11,X2_M11,X0_M11,X1_M11
2023-07-07 04:00:00,SystemResetWarning,0831.3,4.99,000.00,029.3,025.6,000.0,037.8,030.5,30.0,0000.0,0005.89,0008.94,0005.40
2023-07-07 04:01:00,SystemResetWarning,0831.4,5.00,000.00,029.3,025.9,000.0,037.8,030.5,30.2,0000.0,0005.87,0008.91,0005.40
2023-07-07 04:02:00,SystemResetWarning,0831.4,5.00,000.00,029.3,026.3,000.0,037.8,030.6,30.3,-001.1,0005.83,0008.87,0005.40
2023-07-07 04:03:00,SystemResetWarning,0831.4,5.00,000.00,029.3,026.7,000.0,037.8,030.7,30.1,-000.4,0005.79,0008.79,0005.40
2023-07-07 04:04:00,SystemResetWarning,0831.4,5.00,000.00,029.3,027.0,000.0,037.8,030.7,30.2,-001.8,0005.77,0009.19,0005.40
2023-07-07 04:05:00,SystemResetWarning,0831.4,4.99,000.00,029.3,027.3,000.0,037.8,030.8,30.5,-000.8,0005.77,0010.18,0005.40
2023-07-07 04:06:00,SystemResetWarning,0831.4,5.00,000.00,029.3,027.5,000.0,037.8,030.8,30.4,0000.0,0005.77,0010.50,0005.40
2023-07-07 04:07:00,SystemResetWarning,0831.3,5.00,000.00,029.3,027.7,000.0,037.8,030.9,30.5,-001.0,0005.77,0010.36,0005.41
2023-07-07 04:08:00,SystemResetWarning,0831.4,5.00,000.00,029.3,027.8,000.0,037.8,030.9,30.6,-001.2,0005.79,0010.38,0005.41
2023-07-07 04:09:00,SystemResetWarning,0831.3,5.00,000.00,029.4,028.0,000.0,037.9,031.0,31.0,-001.0,0005.81,0010.41,0005.41
2023-07-07 04:10:00,SystemResetWarning,0831.3,5.00,000.00,029.4,028.1,000.0,037.9,031.0,30.6,-000.8,0005.82,0010.43,0005.41
2023-07-07 04:11:00,SystemResetWarning,0831.3,5.00,000.00,029.4,028.2,000.0,037.9,031.0,30.2,-000.8,0005.82,0010.45,0005.41
2023-07-07 04:12:00,SystemResetWarning,0831.3,5.00,000.00,029.5,028.3,000.0,037.9,031.1,30.1,-000.8,0005.79,0010.82,0005.41
2023-07-07 04:13:00,SystemResetWarning,0831.3,5.00,000.00,029.5,028.4,000.0,037.9,031.1,30.3,-000.5,0005.82,0011.15,0005.42
2023-07-07 04:14:00,SystemResetWarning,0831.3,4.99,000.00,029.5,028.3,000.0,038.0,031.2,29.8,-000.2,0005.87,0011.23,0005.44
2023-07-07 04:15:00,SystemResetWarning,0831.3,5.00,000.00,029.5,026.8,000.0,037.8,031.1,29.4,-000.2,0005.91,0011.18,0005.45
2023-07-07 04:16:00,SystemResetWarning,0831.3,5.00,000.00,029.5,025.6,000.0,037.8,030.8,29.9,-000.8,0005.89,0010.09,0005.45
2023-07-07 04:17:00,SystemResetWarning,0831.3,5.00,000.00,029.4,025.4,000.0,037.7,030.5,30.1,-000.9,0005.87,0009.46,0005.45
2023-07-07 04:18:00,SystemResetWarning,0831.3,5.00,000.00,029.2,025.6,000.0,037.7,030.4,32.7,-000.9,0005.90,0009.55,0005.44
2023-07-07 04:19:00,SystemResetWarning,0831.3,5.01,000.00,029.2,026.0,000.0,037.8,030.5,32.0,-001.1,0005.89,0009.58,0005.43
2023-07-07 04:20:00,SystemResetWarning,0831.2,5.00,000.00,029.2,026.4,000.0,037.8,030.6,31.4,-001.3,0005.89,0009.56,0005.43
2023-07-07 04:21:00,SystemResetWarning,0831.3,4.99,000.00,029.2,026.8,000.0,037.8,030.7,30.9,-001.6,0005.93,0009.67,0005.44
2023-07-07 04:22:00,SystemResetWarning,0831.2,5.00,000.00,029.2,027.1,000.0,037.8,030.7,31.1,-001.8,0005.96,0009.68,0005.45
2023-07-07 04:23:00,SystemResetWarning,0831.2,5.01,000.00,029.3,027.4,000.0,037.8,030.8,30.3,-001.9,0005.98,0009.39,0005.47
2023-07-07 04:24:00,SystemResetWarning,0831.3,5.00,000.00,029.3,027.6,000.0,037.8,030.8,30.4,-002.3,0005.98,0009.14,0005.47
2023-07-07 04:25:00,SystemResetWarning,0831.2,4.99,000.00,029.3,027.7,000.0,037.8,030.9,30.4,-003.3,0005.96,0009.20,0005.46
2023-07-07 04:26:00,SystemResetWarning,0831.3,4.99,000.00,029.3,027.9,000.0,037.8,030.9,30.4,-002.8,0005.93,0009.17,0005.45
2023-07-07 04:27:00,SystemResetWarning,0831.3,5.01,000.00,029.3,028.0,000.0,037.8,031.0,30.4,-002.5,0005.98,0009.33,0005.46
2023-07-07 04:28:00,SystemResetWarning,0831.3,5.00,000.00,029.4,028.1,000.0,037.9,031.0,30.3,-001.8,0005.99,0009.35,0005.46
2023-07-07 04:29:00,SystemResetWarning,0831.3,5.01,000.00,029.4,028.2,000.0,037.9,031.0,30.2,-002.0,0005.96,0009.26,0005.46
2023-07-07 04:30:00,SystemResetWarning,0831.3,5.01,000.00,029.5,028.3,000.0,037.9,031.1,30.2,-002.0,0005.94,0009.23,0005.47
2023-07-07 04:31:00,SystemResetWarning,0831.3,4.99,000.00,029.5,028.4,000.0,037.9,031.1,30.1,-001.4,0005.97,0009.87,0005.47
2023-07-07 04:32:00,SystemResetWarning,0831.2,4.99,000.00,029.5,028.4,000.0,037.9,031.1,30.1,-001.5,0005.94,0010.21,0005.46
2023-07-07 04:33:00,SystemResetWarning,0831.2,4.99,000.00,029.6,028.5,000.0,038.0,031.2,29.9,-000.1,0005.93,0010.63,0005.47
2023-07-07 04:34:00,SystemResetWarning,0831.3,5.00,000.00,029.6,028.2,000.0,038.0,031.2,29.9,-000.3,0005.92,0010.54,0005.45
2023-07-07 04:35:00,SystemResetWarning,0831.2,5.00,000.00,029.5,026.4,000.0,037.8,031.0,30.1,-000.3,0005.90,0010.32,0005.44
2023-07-07 04:36:00,SystemResetWarning,0831.2,5.00,000.00,029.5,025.4,000.0,037.7,030.8,30.2,0000.0,0005.90,0010.29,0005.44
2023-07-07 04:37:00,SystemResetWarning,0831.2,5.01,000.00,029.4,025.4,000.0,037.7,030.5,30.5,-000.4,0005.90,0010.57,0005.44
2023-07-07 04:38:00,SystemResetWarning,0831.2,5.01,000.00,029.3,025.8,000.0,037.8,030.5,30.9,-002.6,0005.86,0010.49,0005.44
2023-07-07 04:39:00,SystemResetWarning,0831.2,5.00,000.00,029.3,026.2,000.0,037.8,030.6,31.1,-002.5,0005.85,0010.53,0005.44
2023-07-07 04:40:00,SystemResetWarning,0831.3,4.99,000.00,029.2,026.5,000.0,037.8,030.7,30.8,-003.1,0005.86,0010.78,0005.44
2023-07-07 04:41:00,SystemResetWarning,0831.2,5.00,000.00,029.2,026.9,000.0,037.8,030.7,30.6,-002.8,0005.89,0011.02,0005.45
2023-07-07 04:42:00,SystemResetWarning,0831.2,5.01,000.00,029.3,027.2,000.0,037.8,030.8,30.8,-002.5,0005.90,0010.46,0005.47
2023-07-07 04:43:00,SystemResetWarning,0831.2,5.00,000.00,029.3,027.4,000.0,037.8,030.8,30.2,-002.3,0005.93,0010.14,0005.49
2023-07-07 04:44:00,SystemResetWarning,0831.2,5.00,000.00,029.3,027.6,000.0,037.8,030.9,30.7,-002.5,0005.96,0009.90,0005.49
2023-07-07 04:45:00,SystemResetWarning,0831.2,5.00,000.00,029.3,027.8,000.0,037.8,030.9,31.1,-003.0,0006.00,0010.53,0005.50
2023-07-07 04:46:00,SystemResetWarning,0831.2,4.99,000.00,029.3,027.9,000.0,037.9,030.9,31.1,-003.3,0006.03,0010.58,0005.52
2023-07-07 04:47:00,SystemResetWarning,0831.3,5.00,000.00,029.4,028.0,000.0,037.9,031.0,30.9,-002.7,0006.05,0010.53,0005.52
2023-07-07 04:48:00,SystemResetWarning,0831.3,5.00,000.00,029.4,028.1,000.0,037.9,031.0,30.8,-002.9,0006.03,0010.12,0005.53
2023-07-07 04:49:00,SystemResetWarning,0831.3,5.00,000.00,029.4,028.2,000.0,037.9,031.0,30.9,-003.0,0006.03,0010.37,0005.53
2023-07-07 04:50:00,SystemResetWarning,0831.3,5.00,000.00,029.5,028.3,000.0,037.9,031.1,31.0,-003.7,0006.09,0010.70,0005.55
2023-07-07 04:51:00,SystemResetWarning,0831.3,5.00,000.00,029.5,028.3,000.0,037.9,031.1,30.2,-003.5,0006.12,0010.60,0005.57
2023-07-07 04:52:00,SystemResetWarning,0831.3,5.00,000.00,029.5,028.4,000.0,038.0,031.1,29.6,-004.2,0006.13,0010.75,0005.56
2023-07-07 04:53:00,SystemResetWarning,0831.3,4.99,000.00,029.6,028.4,000.0,038.0,031.2,29.3,-004.0,0006.14,0010.83,0005.56
2023-07-07 04:54:00,SystemResetWarning,0831.3,4.99,000.00,029.6,028.4,000.0,038.0,031.2,29.4,-003.9,0006.15,0010.85,0005.57
2023-07-07 04:55:00,SystemResetWarning,0831.3,5.01,000.00,029.6,026.8,000.0,037.9,031.1,30.4,-003.5,0006.16,0011.42,0005.57
2023-07-07 04:56:00,SystemResetWarning,0831.3,5.00,000.00,029.5,025.5,000.0,037.8,030.9,30.9,-003.2,0006.12,0010.88,0005.56
2023-07-07 04:57:00,SystemResetWarning,0831.3,5.01,000.00,029.4,025.4,000.0,037.8,030.6,31.5,-001.3,0006.09,0010.78,0005.55
2023-07-07 04:58:00,SystemResetWarning,0831.3,5.01,000.00,029.3,025.7,000.0,037.8,030.5,31.3,0000.0,0006.08,0010.83,0005.54
2023-07-07 04:59:00,SystemResetWarning,0831.3,5.00,000.00,029.3,026.1,000.0,037.8,030.6,31.2,0000.0,0006.11,0011.12,0005.52
